Location: Bismarck
(46.7731°N, 100.8200°W)
Time: 01:53:39
(UTC-05:00)

ISS - All Passes

Search period start: 24 July 2016 00:00
Search period end: 03 August 2016 00:00
Orbit: 401 x 404 km, 51.6° (Epoch: 24 July)

Date Brightness Start Highest point End Pass type
(mag) Time Alt. Az. Time Alt. Az. Time Alt. Az.
24 Jul - 00:41:51 10° WSW 00:45:07 79° SSE 00:48:23 10° ENE visible
24 Jul - 02:18:42 10° WNW 02:21:46 36° N 02:24:50 10° ENE visible
24 Jul - 03:55:34 10° WNW 03:58:40 39° N 04:01:46 10° E visible
24 Jul - 05:32:00 10° WNW 05:35:15 64° SSW 05:38:29 10° SE visible
24 Jul - 07:10:19 10° WSW 07:11:07 11° SW 07:11:55 10° SSW daylight
24 Jul - 23:49:07 10° SW 23:52:14 46° SSE 23:55:24 10° ENE visible
25 Jul - 01:25:34 10° W 01:28:43 44° NNW 01:31:52 10° ENE visible
25 Jul - 03:02:34 10° WNW 03:05:36 34° N 03:08:38 10° ENE visible
25 Jul - 04:39:04 10° WNW 04:42:21 80° NNE 04:45:36 10° ESE visible
25 Jul - 06:16:05 10° W 06:18:27 19° SW 06:20:49 10° S daylight
25 Jul - 22:56:38 10° SSW 22:59:27 27° SE 23:02:16 10° E visible
26 Jul - 00:32:29 10° WSW 00:35:43 60° NNW 00:38:57 10° ENE visible
26 Jul - 02:09:32 10° WNW 02:12:32 33° N 02:15:32 10° ENE visible
26 Jul - 03:46:09 10° WNW 03:49:22 54° NNE 03:52:34 10° E visible
26 Jul - 05:22:45 10° WNW 05:25:42 32° SW 05:28:38 10° SSE visible
26 Jul - 22:04:38 10° S 22:06:43 16° SE 22:08:48 10° E visible
26 Jul - 23:39:30 10° WSW 23:42:45 90° SSE 23:46:01 10° ENE visible
27 Jul - 01:16:25 10° WNW 01:19:27 35° N 01:22:29 10° ENE visible
27 Jul - 02:53:13 10° WNW 02:56:20 41° NNE 02:59:28 10° E visible
27 Jul - 04:29:40 10° WNW 04:32:52 55° SSW 04:36:03 10° SE visible
27 Jul - 22:46:40 10° SW 22:49:52 54° SSE 22:53:04 10° ENE visible
28 Jul - 00:23:16 10° W 00:26:23 41° NNW 00:29:31 10° ENE visible
28 Jul - 02:00:14 10° WNW 02:03:16 35° N 02:06:19 10° ENE visible
28 Jul - 03:36:42 10° WNW 03:39:59 89° NNE 03:43:14 10° ESE visible
28 Jul - 05:13:55 10° W 05:16:01 16° SW 05:18:07 10° S visible
28 Jul - 21:54:06 10° SSW 21:57:01 31° SE 21:59:58 10° ENE visible
28 Jul - 23:30:09 10° W 23:33:21 54° NNW 23:36:35 10° ENE visible
29 Jul - 01:07:11 10° WNW 01:10:12 33° N 01:13:12 10° ENE visible
29 Jul - 02:43:46 10° WNW 02:47:01 59° NNE 02:50:14 10° ESE visible
29 Jul - 04:20:27 10° W 04:23:17 27° SW 04:26:06 10° SSE night (unlit)
29 Jul - 21:01:56 10° S 21:04:17 18° SE 21:06:38 10° E daylight
29 Jul - 22:37:07 10° WSW 22:40:23 81° NNW 22:43:39 10° ENE visible
30 Jul - 00:14:05 10° WNW 00:17:07 34° N 00:20:08 10° ENE visible
30 Jul - 01:50:50 10° WNW 01:54:00 44° NNE 01:57:08 10° E visible
30 Jul - 03:27:19 10° WNW 03:30:28 47° SW 03:33:36 10° SE night (unlit)
30 Jul - 20:10:54 10° SE 20:11:35 10° SE 20:12:17 10° ESE daylight
30 Jul - 21:44:14 10° SW 21:47:27 63° SSE 21:50:42 10° ENE visible
30 Jul - 23:20:56 10° W 23:24:02 39° N 23:27:08 10° ENE visible
31 Jul - 00:57:52 10° WNW 01:00:56 36° N 01:03:59 10° ENE visible
31 Jul - 02:34:19 10° WNW 02:37:35 80° SSW 02:40:51 10° ESE visible
31 Jul - 04:11:48 10° WSW 04:13:33 14° SW 04:15:19 10° SSW night (unlit)
31 Jul - 20:51:34 10° SSW 20:54:36 36° SE 20:57:38 10° ENE daylight
31 Jul - 22:27:48 10° W 22:30:59 50° NNW 22:34:10 10° ENE visible
01 Aug - 00:04:50 10° WNW 00:07:50 33° N 00:10:51 10° ENE visible
01 Aug - 01:41:22 10° WNW 01:44:38 66° NNE 01:47:52 10° ESE visible
01 Aug - 03:18:09 10° W 03:20:50 24° SW 03:23:31 10° SSE night (unlit)
01 Aug - 19:59:15 10° S 20:01:49 21° SE 20:04:23 10° E daylight
01 Aug - 21:34:43 10° WSW 21:37:59 72° NNW 21:41:14 10° ENE daylight
01 Aug - 23:11:43 10° WNW 23:14:44 33° N 23:17:45 10° ENE visible
02 Aug - 00:48:26 10° WNW 00:51:37 47° NNE 00:54:46 10° E visible
02 Aug - 02:24:57 10° WNW 02:28:02 40° SW 02:31:07 10° SE visible
02 Aug - 19:07:39 10° SSE 19:09:06 12° SE 19:10:33 10° ESE daylight
02 Aug - 20:41:47 10° SW 20:45:01 73° SSE 20:48:18 10° ENE daylight
02 Aug - 22:18:34 10° W 22:21:39 37° N 22:24:43 10° ENE visible
